TimeHST,TemperatureF,Dew PointF,Humidity,Sea Level PressureIn,VisibilityMPH,Wind Direction,Wind SpeedMPH,Gust SpeedMPH,PrecipitationIn,Events,Conditions,WindDirDegrees,DateUTC
12:56 AM,63.0,56.8,80,29.98,10.0,NE,21.9,27.6,N/A,,Clear,40,2014-02-27 10:56:00
1:56 AM,63.0,55.9,78,29.96,10.0,NNE,19.6,29.9,N/A,,Clear,30,2014-02-27 11:56:00
2:56 AM,63.0,55.9,78,29.96,10.0,ENE,15.0,20.7,N/A,,Clear,60,2014-02-27 12:56:00
3:56 AM,61.9,55.9,81,29.95,10.0,NE,20.7,-,N/A,,Clear,50,2014-02-27 13:56:00
4:56 AM,61.9,54.9,78,29.96,10.0,ENE,12.7,21.9,N/A,,Clear,60,2014-02-27 14:56:00
5:56 AM,61.9,54.9,78,29.98,10.0,NE,17.3,-,N/A,,Clear,50,2014-02-27 15:56:00
6:56 AM,61.0,54.9,80,30.01,10.0,NE,12.7,-,N/A,,Clear,50,2014-02-27 16:56:00
7:56 AM,64.9,55.9,73,30.02,10.0,East,11.5,-,N/A,,Clear,80,2014-02-27 17:56:00
8:56 AM,70.0,55.9,61,30.02,10.0,ESE,4.6,-,N/A,,Clear,120,2014-02-27 18:56:00
9:56 AM,72.9,54.9,53,30.03,10.0,ESE,6.9,-,N/A,,Clear,110,2014-02-27 19:56:00
10:56 AM,74.8,54.9,50,30.03,10.0,ESE,8.1,-,N/A,,Clear,110,2014-02-27 20:56:00
11:56 AM,77.0,52.9,43,30.00,10.0,SE,4.6,-,N/A,,Clear,140,2014-02-27 21:56:00
12:56 PM,79.0,54.0,42,29.98,10.0,Variable,3.5,-,N/A,,Clear,0,2014-02-27 22:56:00
1:56 PM,79.9,54.9,42,29.95,10.0,Variable,4.6,-,N/A,,Clear,0,2014-02-27 23:56:00
2:56 PM,79.0,54.9,43,29.94,10.0,Variable,6.9,-,N/A,,Clear,0,2014-02-28 00:56:00
3:56 PM,75.9,56.8,51,29.94,10.0,SSE,8.1,-,N/A,,Clear,150,2014-02-28 01:56:00
4:56 PM,74.8,57.9,55,29.94,10.0,SE,6.9,-,N/A,,Clear,130,2014-02-28 02:56:00
5:45 PM,73.4,60.8,65,29.99,10.0,SE,6.9,-,N/A,,Clear,130,2014-02-28 03:45:00
5:56 PM,72.0,59.9,66,29.95,10.0,ESE,5.8,-,N/A,,Clear,120,2014-02-28 03:56:00
6:50 PM,69.8,57.2,64,29.99,10.0,ESE,5.8,-,N/A,,Clear,120,2014-02-28 04:50:00
6:56 PM,68.0,59.9,75,29.97,10.0,SE,6.9,-,N/A,,Clear,130,2014-02-28 04:56:00
7:45 PM,71.6,60.8,69,30.01,10.0,SE,6.9,-,N/A,,Clear,130,2014-02-28 05:45:00
7:56 PM,64.9,59.9,84,29.99,10.0,East,4.6,-,N/A,,Clear,80,2014-02-28 05:56:00
8:56 PM,63.9,59.9,87,30.00,10.0,NE,4.6,-,N/A,,Clear,50,2014-02-28 06:56:00
9:56 PM,63.0,61.0,93,30.00,10.0,East,4.6,-,N/A,,Clear,80,2014-02-28 07:56:00
10:56 PM,63.0,59.9,90,30.00,10.0,East,3.5,-,N/A,,Clear,90,2014-02-28 08:56:00
11:56 PM,61.0,59.0,93,29.99,10.0,East,8.1,-,N/A,,Clear,90,2014-02-28 09:56:00